Regional Weather Roundup
Issued by NWS

Home | Current Version | Previous Version | Text Only | Print | Product List | Glossary Off
Versions: 1 2 3 4 5 6 7 8 9 10 11 12 13 14 15 16 17 18 19 20 21 22 23 24 25 26 27 28 29 30 31 32 33 34 35 36 37 38 39 40 41 42 43 44 45 46 47 48 49 50

392
ASUS43 KOAX 191202
RWRNE

WEATHER ROUNDUP FOR NEBRASKA
NATIONAL WEATHER SERVICE OMAHA NE
600 AM CST SUN FEB 19 2017

NOTES: SATELLITE DATA IS BEING USED TO AUGMENT CLOUD COVER ABOVE
       12000 FEET.
       "FAIR" INDICATES FEW OR NO CLOUDS BELOW 12,000 FEET WITH NO
       SIGNIFICANT WEATHER AND/OR OBSTRUCTIONS TO VISIBILITY.

  * THESE STATIONS DO NOT REPORT WEATHER SUCH AS RAIN...SNOW OR FOG.

NEZ001>004-019>022-054>056-191300-
NEBRASKA PANHANDLE

CITY           SKY/WX    TMP DP  RH WIND       PRES   REMARKS
SCOTTSBLUFF    CLOUDY    31  26  82 NW3       29.64R
6HR MIN TEMP:  31; 6HR MAX TEMP:  46;

ALLIANCE       CLOUDY    32  28  85 SE6       29.62R WCI  26
6HR MIN TEMP:  32; 6HR MAX TEMP:  42;

CHADRON        PTCLDY    42  31  64 S9        29.59F
6HR MIN TEMP:  39; 6HR MAX TEMP:  50;

KIMBALL        CLOUDY    32  26  79 W7        29.66S WCI  26
SIDNEY         CLOUDY    35  24  64 W7        29.65R WCI  29
6HR MIN TEMP:  34; 6HR MAX TEMP:  47;

$$

NEZ057>060-069>072-079>082-191300-
SOUTHWEST NEBRASKA

CITY           SKY/WX    TMP DP  RH WIND       PRES   REMARKS
NORTH PLATTE   MOCLDY    47  36  65 E13       29.68F
6HR MIN TEMP:  37; 6HR MAX TEMP:  48;

IMPERIAL       CLOUDY    47  34  60 S15       29.67S
6HR MIN TEMP:  45; 6HR MAX TEMP:  51;

LEXINGTON      PTCLDY    45  39  82 SE12      29.74F
MCCOOK         CLOUDY    48  41  76 S16G23    29.71F
6HR MIN TEMP:  47; 6HR MAX TEMP:  51;

OGALLALA       CLOUDY    46  34  61 CALM      29.66S
$$

NEZ005>010-023>029-035>040-094-191300-
NORTH CENTRAL NEBRASKA

CITY           SKY/WX    TMP DP  RH WIND       PRES   REMARKS
VALENTINE      PTCLDY    44  34  67 S7        29.64F
6HR MIN TEMP:  41; 6HR MAX TEMP:  48;

AINSWORTH      PTCLDY    42  36  78 S10       29.66F
BROKEN BOW     PTCLDY    37  34  89 SE6       29.73F WCI  32
6HR MIN TEMP:  31; 6HR MAX TEMP:  40;

O`NEILL        CLOUDY    39  35  84 S7        29.74S WCI  34
ORD            CLEAR     39  34  82 SE7       29.76S WCI  34
6HR MIN TEMP:  33; 6HR MAX TEMP:  42;

THEDFORD       MOCLDY    46  37  69 S16       29.67F
$$

NEZ041-046>049-061>064-073>077-083>087-191300-
SOUTH CENTRAL NEBRASKA

CITY           SKY/WX    TMP DP  RH WIND       PRES   REMARKS
GRAND ISLAND   PTCLDY    47  45  93 S9        29.80S
6HR MIN TEMP:  44; 6HR MAX TEMP:  51;

AURORA         PTCLDY    46  43  91 S7        29.81S
HASTINGS       PTCLDY    46  43  89 S8        29.82R
6HR MIN TEMP:  46; 6HR MAX TEMP:  50;

HEBRON         CLOUDY    47  45  93 S8        29.84S
HOLDREGE       MOCLDY    40  38  93 S8        29.78S WCI  35
KEARNEY *      PTCLDY    45  41  87 S8        29.80R
YORK           PTCLDY    45  43  93 S10       29.83S
$$

NEZ011>018-030>034-042>045-191300-
NORTHEAST NEBRASKA

CITY           SKY/WX    TMP DP  RH WIND       PRES   REMARKS
NORFOLK        CLOUDY    46  39  76 S9        29.80S
6HR MIN TEMP:  40; 6HR MAX TEMP:  48;

ALBION         PTCLDY    38  34  84 SE5       29.80S WCI  35
BLAIR          CLEAR     45  37  75 S8        29.86S
FREMONT        CLOUDY    41  36  82 SE5       29.85S
TEKAMAH        CLOUDY    34  31  88 S6        29.85S WCI  29
6HR MIN TEMP:  33; 6HR MAX TEMP:  39;

WAYNE          CLOUDY    39  33  81 S7        29.81S WCI  34
$$

NEZ050>053-065>068-078-088>093-191300-
SOUTHEAST NEBRASKA

CITY           SKY/WX    TMP DP  RH WIND       PRES   REMARKS
LINCOLN        MOCLDY    39  32  76 CALM      29.87S
6HR MIN TEMP:  35; 6HR MAX TEMP:  42;

OMAHA EPPLEY   PTCLDY    42  35  76 SE10      29.87R
6HR MIN TEMP:  40; 6HR MAX TEMP:  45;

BEATRICE       CLOUDY    47  44  90 SE8       29.87S
FALLS CITY     CLOUDY    43  42  97 E5        29.90R FOG
6HR MIN TEMP:  42; 6HR MAX TEMP:  51;

NEBRASKA CITY  PTCLDY    40  37  89 S7        29.89R
PLATTSMOUTH    PTCLDY    44  35  72 S6        29.88R
$$

NEZ044-045-051>053-067-191300-
OMAHA AREA

CITY           SKY/WX    TMP DP  RH WIND       PRES   REMARKS
OMAHA EPPLEY   PTCLDY    42  35  76 SE10      29.87R
6HR MIN TEMP:  40; 6HR MAX TEMP:  45;

BLAIR          CLEAR     45  37  75 S8        29.86S
FREMONT        CLOUDY    41  36  82 SE5       29.85S
MILLARD        PTCLDY    41  35  78 CALM      29.87S
OFFUTT AFB     PTCLDY    35  34  99 CALM      29.87S
PLATTSMOUTH    PTCLDY    44  35  72 S6        29.88R
WAHOO          FAIR      35  31  85 SE5       29.85S WCI  31
$$




USA.gov is the U.S. government's official web portal to all federal, state and local government web resources and services.